Simultaneous Nadir Overpasses (SNOs) Predictions

Prediction of SNOs between FY3D and TERRA Satellite Orbit:

Table of predicted SNOs for the next 14.0 days since TLE Epoch: 6/20/2020
Index Date (FY3D) Time (FY3D) Lat,Lon (FY3D) SZA (FY3D ) Date (TERRA) Time (TERRA) Lat,Lon (TERRA) SZA (TERRA ) Distance(km) Time Diff (sec)
1 06/20/2020 15:48:25 -68.92, 122.12 134.63 06/20/2020 15:49:09 -68.92, 122.16 134.63 1.59 44
2 06/20/2020 16:39:08 68.76, -70.36 45.22 06/20/2020 16:38:37 68.76, -70.40 45.21 1.89 31
3 06/23/2020 08:04:49 -68.95,-122.01 134.58 06/23/2020 08:05:38 -68.93,-121.95 134.60 3.00 49
4 06/23/2020 08:55:32 68.80, 45.51 45.28 06/23/2020 08:55:05 68.82, 45.56 45.29 2.84 27
5 06/23/2020 09:45:57 -67.82,-145.91 135.71 06/23/2020 09:44:50 -67.88,-147.94 135.63 85.65 67
6 06/26/2020 00:21:11 -68.92, -6.06 134.53 06/26/2020 00:22:06 -68.93, -6.06 134.52 1.15 55
7 06/26/2020 01:11:55 68.84, 161.37 45.38 06/26/2020 01:11:33 68.82, 161.44 45.37 3.27 22
8 06/26/2020 02:02:24 -68.07, -30.30 135.40 06/26/2020 02:01:14 -68.11, -31.80 135.34 62.30 70
9 06/28/2020 16:37:35 -68.95, 109.81 134.38 06/28/2020 16:38:35 -68.93, 109.82 134.40 2.33 60
10 06/28/2020 17:28:18 68.82, -82.70 45.49 06/28/2020 17:28:02 68.81, -82.69 45.48 0.67 16
11 06/28/2020 18:18:51 -68.26, 85.37 135.08 06/28/2020 18:17:40 -68.27, 84.28 135.05 44.79 71
12 07/01/2020 08:53:58 -68.93,-134.25 134.23 07/01/2020 08:55:04 -68.93,-134.31 134.24 2.47 66
13 07/01/2020 09:44:41 68.80, 33.24 45.64 07/01/2020 09:44:31 68.80, 33.18 45.64 2.33 10
14 07/01/2020 10:35:17 -68.39,-158.90 134.78 07/01/2020 10:34:05 -68.49,-159.58 134.67 29.54 72
15 07/04/2020 01:10:22 -68.96, -18.38 133.98 07/04/2020 01:11:32 -68.97, -18.37 133.98 1.06 70
16 07/04/2020 02:01:05 68.84, 149.10 45.90 07/04/2020 02:00:59 68.85, 149.11 45.90 0.94 6




NCC Satellite Simultaneous Nadir Overpasses (SNOs) Prediction Service
